Year,Month,Day,Hour,Minute,Value (Times are PST for temperature in C)
2021,06,11,00,00,10.90
2021,06,11,00,01,10.90
2021,06,11,00,02,10.90
2021,06,11,00,03,10.90
2021,06,11,00,04,10.90
2021,06,11,00,05,10.90
2021,06,11,00,06,10.90
2021,06,11,00,07,10.90
2021,06,11,00,08,10.90
2021,06,11,00,09,10.90
2021,06,11,00,10,10.90
2021,06,11,00,11,10.90
2021,06,11,00,12,10.90
2021,06,11,00,13,10.80
2021,06,11,00,14,10.90
2021,06,11,00,15,10.90
2021,06,11,00,16,10.80
2021,06,11,00,17,10.80
2021,06,11,00,18,10.90
2021,06,11,00,19,10.80
2021,06,11,00,20,10.80
2021,06,11,00,21,10.80
2021,06,11,00,22,10.80
2021,06,11,00,23,10.80
2021,06,11,00,24,10.90
2021,06,11,00,25,10.80
2021,06,11,00,26,10.80
2021,06,11,00,27,10.80
2021,06,11,00,28,10.80
2021,06,11,00,29,10.80
2021,06,11,00,30,10.80
2021,06,11,00,31,10.80
2021,06,11,00,32,10.80
2021,06,11,00,33,10.80
2021,06,11,00,34,10.80
2021,06,11,00,35,10.80
2021,06,11,00,36,10.70
2021,06,11,00,37,10.70
2021,06,11,00,38,10.70
2021,06,11,00,39,10.70
2021,06,11,00,40,10.70
2021,06,11,00,41,10.70
2021,06,11,00,42,10.70
2021,06,11,00,43,10.70
2021,06,11,00,44,10.70
2021,06,11,00,45,10.70
2021,06,11,00,46,10.60
2021,06,11,00,47,10.60
2021,06,11,00,48,10.60
2021,06,11,00,49,10.60
2021,06,11,00,50,10.60
2021,06,11,00,51,10.60
2021,06,11,00,52,10.60
2021,06,11,00,53,10.60
2021,06,11,00,54,10.60
2021,06,11,00,55,10.60
2021,06,11,00,56,10.60
2021,06,11,00,57,10.60
2021,06,11,00,58,10.70
2021,06,11,00,59,10.60
2021,06,11,01,00,10.70
2021,06,11,01,01,10.70
2021,06,11,01,02,10.60
2021,06,11,01,03,10.60
2021,06,11,01,04,10.60
2021,06,11,01,05,10.60
2021,06,11,01,06,10.60
2021,06,11,01,07,10.60
2021,06,11,01,08,10.60
2021,06,11,01,09,10.60
2021,06,11,01,10,10.60
2021,06,11,01,11,10.60
2021,06,11,01,12,10.60
2021,06,11,01,13,10.60
2021,06,11,01,14,10.60
2021,06,11,01,15,10.60
2021,06,11,01,16,10.60
2021,06,11,01,17,10.60
2021,06,11,01,18,10.60
2021,06,11,01,19,10.60
2021,06,11,01,20,10.60
2021,06,11,01,21,10.60
2021,06,11,01,22,10.60
2021,06,11,01,23,10.60
2021,06,11,01,24,10.60
2021,06,11,01,25,10.60
2021,06,11,01,26,10.60
2021,06,11,01,27,10.60
2021,06,11,01,28,10.60
2021,06,11,01,29,10.60
2021,06,11,01,30,10.60
2021,06,11,01,31,10.60
2021,06,11,01,32,10.60
2021,06,11,01,33,10.60
2021,06,11,01,34,10.60
2021,06,11,01,35,10.60
2021,06,11,01,36,10.60
2021,06,11,01,37,10.60
2021,06,11,01,38,10.60
2021,06,11,01,39,10.60
2021,06,11,01,40,10.60
2021,06,11,01,41,10.50
2021,06,11,01,42,10.50
2021,06,11,01,43,10.50
2021,06,11,01,44,10.50
2021,06,11,01,45,10.50
2021,06,11,01,46,10.50
2021,06,11,01,47,10.50
2021,06,11,01,48,10.50
2021,06,11,01,49,10.50
2021,06,11,01,50,10.50
2021,06,11,01,51,10.50
2021,06,11,01,52,10.50
2021,06,11,01,53,10.50
2021,06,11,01,54,10.50
2021,06,11,01,55,10.50
2021,06,11,01,56,10.50
2021,06,11,01,57,10.50
2021,06,11,01,58,10.50
2021,06,11,01,59,10.50
2021,06,11,02,00,10.50
2021,06,11,02,01,10.50
2021,06,11,02,02,10.50
2021,06,11,02,03,10.50
2021,06,11,02,04,10.60
2021,06,11,02,05,10.60
2021,06,11,02,06,10.50
2021,06,11,02,07,10.60
2021,06,11,02,08,10.60
2021,06,11,02,09,10.60
2021,06,11,02,10,10.50
2021,06,11,02,11,10.50
2021,06,11,02,12,10.50
2021,06,11,02,13,10.50
2021,06,11,02,14,10.60
2021,06,11,02,15,10.60
2021,06,11,02,16,10.60
2021,06,11,02,17,10.60
2021,06,11,02,18,10.60
2021,06,11,02,19,10.60
2021,06,11,02,20,10.60
2021,06,11,02,21,10.60
2021,06,11,02,22,10.70
2021,06,11,02,23,10.70
2021,06,11,02,24,10.70
2021,06,11,02,25,10.70
2021,06,11,02,26,10.70
2021,06,11,02,27,10.70
2021,06,11,02,28,10.70
2021,06,11,02,29,10.70
2021,06,11,02,30,10.70
2021,06,11,02,31,10.70
2021,06,11,02,32,10.70
2021,06,11,02,33,10.70
2021,06,11,02,34,10.70
2021,06,11,02,35,10.70
2021,06,11,02,36,10.70
2021,06,11,02,37,10.60
2021,06,11,02,38,10.70
2021,06,11,02,39,10.70
2021,06,11,02,40,10.70
2021,06,11,02,41,10.70
2021,06,11,02,42,10.70
2021,06,11,02,43,10.70
2021,06,11,02,44,10.70
2021,06,11,02,45,10.70
2021,06,11,02,46,10.60
2021,06,11,02,47,10.70
2021,06,11,02,48,10.70
2021,06,11,02,49,10.60
2021,06,11,02,50,10.70
2021,06,11,02,51,10.60
2021,06,11,02,52,10.60
2021,06,11,02,53,10.60
2021,06,11,02,54,10.60
2021,06,11,02,55,10.60
2021,06,11,02,56,10.60
2021,06,11,02,57,10.60
2021,06,11,02,58,10.60
2021,06,11,02,59,10.60
2021,06,11,03,00,10.60
2021,06,11,03,01,10.60
2021,06,11,03,02,10.60
2021,06,11,03,03,10.50
2021,06,11,03,04,10.50
2021,06,11,03,05,10.50
2021,06,11,03,06,10.50
2021,06,11,03,07,10.50
2021,06,11,03,08,10.50
2021,06,11,03,09,10.50
2021,06,11,03,10,10.50
2021,06,11,03,11,10.50
2021,06,11,03,12,10.40
2021,06,11,03,13,10.40
2021,06,11,03,14,10.40
2021,06,11,03,15,10.40
2021,06,11,03,16,10.40
2021,06,11,03,17,10.40
2021,06,11,03,18,10.40
2021,06,11,03,19,10.40
2021,06,11,03,20,10.40
2021,06,11,03,21,10.40
2021,06,11,03,22,10.40
2021,06,11,03,23,10.40
2021,06,11,03,24,10.40
2021,06,11,03,25,10.40
2021,06,11,03,26,10.40
2021,06,11,03,27,10.40
2021,06,11,03,28,10.40
2021,06,11,03,29,10.40
2021,06,11,03,30,10.40
2021,06,11,03,31,10.40
2021,06,11,03,32,10.40
2021,06,11,03,33,10.40
2021,06,11,03,34,10.40
2021,06,11,03,35,10.40
2021,06,11,03,36,10.40
2021,06,11,03,37,10.40
2021,06,11,03,38,10.40
2021,06,11,03,39,10.40
2021,06,11,03,40,10.40
2021,06,11,03,41,10.40
2021,06,11,03,42,10.40
2021,06,11,03,43,10.40
2021,06,11,03,44,10.40
2021,06,11,03,45,10.40
2021,06,11,03,46,10.40
2021,06,11,03,47,10.40
2021,06,11,03,48,10.40
2021,06,11,03,49,10.40
2021,06,11,03,50,10.40
2021,06,11,03,51,10.50
2021,06,11,03,52,10.50
2021,06,11,03,53,10.50
2021,06,11,03,54,10.50
2021,06,11,03,55,10.50
2021,06,11,03,56,10.50
2021,06,11,03,57,10.50
2021,06,11,03,58,10.50
2021,06,11,03,59,10.50
2021,06,11,04,00,10.50
2021,06,11,04,01,10.50
2021,06,11,04,02,10.60
2021,06,11,04,03,10.50
2021,06,11,04,04,10.50
2021,06,11,04,05,10.50
2021,06,11,04,06,10.50
2021,06,11,04,07,10.60
2021,06,11,04,08,10.50
2021,06,11,04,09,10.50
2021,06,11,04,10,10.60
2021,06,11,04,11,10.60
2021,06,11,04,12,10.60
2021,06,11,04,13,10.60
2021,06,11,04,14,10.60
2021,06,11,04,15,10.60
2021,06,11,04,16,10.60
2021,06,11,04,17,10.60
2021,06,11,04,18,10.60
2021,06,11,04,19,10.60
2021,06,11,04,20,10.60
2021,06,11,04,21,10.60
2021,06,11,04,22,10.60
2021,06,11,04,23,10.60
2021,06,11,04,24,10.60
2021,06,11,04,25,10.60
2021,06,11,04,26,10.60
2021,06,11,04,27,10.60
2021,06,11,04,28,10.60
2021,06,11,04,29,10.60
2021,06,11,04,30,10.60
2021,06,11,04,31,10.60
2021,06,11,04,32,10.60
2021,06,11,04,33,10.60
2021,06,11,04,34,10.60
2021,06,11,04,35,10.60
2021,06,11,04,36,10.60
2021,06,11,04,37,10.50
2021,06,11,04,38,10.50
2021,06,11,04,39,10.50
2021,06,11,04,40,10.50
2021,06,11,04,41,10.50
2021,06,11,04,42,10.50
2021,06,11,04,43,10.50
2021,06,11,04,44,10.50
2021,06,11,04,45,10.50
2021,06,11,04,46,10.50
2021,06,11,04,47,10.60
2021,06,11,04,48,10.50
2021,06,11,04,49,10.50
2021,06,11,04,50,10.50
2021,06,11,04,51,10.50
2021,06,11,04,52,10.50
2021,06,11,04,53,10.50
2021,06,11,04,54,10.50
2021,06,11,04,55,10.50
2021,06,11,04,56,10.50
2021,06,11,04,57,10.50
2021,06,11,04,58,10.50
2021,06,11,04,59,10.50
2021,06,11,05,00,10.50
2021,06,11,05,01,10.50
2021,06,11,05,02,10.50
2021,06,11,05,03,10.50
2021,06,11,05,04,10.60
2021,06,11,05,05,10.50
2021,06,11,05,06,10.60
2021,06,11,05,07,10.60
2021,06,11,05,08,10.50
2021,06,11,05,09,10.50
2021,06,11,05,10,10.50
2021,06,11,05,11,10.50
2021,06,11,05,12,10.50
2021,06,11,05,13,10.60
2021,06,11,05,14,10.60
2021,06,11,05,15,10.60
2021,06,11,05,16,10.60
2021,06,11,05,17,10.60
2021,06,11,05,18,10.60
2021,06,11,05,19,10.60
2021,06,11,05,20,10.60
2021,06,11,05,21,10.70
2021,06,11,05,22,10.70
2021,06,11,05,23,10.70
2021,06,11,05,24,10.70
2021,06,11,05,25,10.80
2021,06,11,05,26,10.80
2021,06,11,05,27,10.80
2021,06,11,05,28,10.80
2021,06,11,05,29,10.80
2021,06,11,05,30,10.80
2021,06,11,05,31,10.80
2021,06,11,05,32,10.90
2021,06,11,05,33,10.90
2021,06,11,05,34,10.90
2021,06,11,05,35,10.90
2021,06,11,05,36,10.90
2021,06,11,05,37,10.90
2021,06,11,05,38,10.90
2021,06,11,05,39,10.90
2021,06,11,05,40,10.90
2021,06,11,05,41,10.90
2021,06,11,05,42,10.90
2021,06,11,05,43,10.90
2021,06,11,05,44,10.90
2021,06,11,05,45,11.00
2021,06,11,05,46,10.90
2021,06,11,05,47,10.90
2021,06,11,05,48,10.90
2021,06,11,05,49,10.90
2021,06,11,05,50,10.90
2021,06,11,05,51,11.00
2021,06,11,05,52,11.00
2021,06,11,05,53,11.00
2021,06,11,05,54,11.00
2021,06,11,05,55,11.00
2021,06,11,05,56,11.00
2021,06,11,05,57,11.00
2021,06,11,05,58,11.00
2021,06,11,05,59,11.00
2021,06,11,06,00,11.00
2021,06,11,06,01,11.10
2021,06,11,06,02,11.10
2021,06,11,06,03,11.10
2021,06,11,06,04,11.10
2021,06,11,06,05,11.10
2021,06,11,06,06,11.20
2021,06,11,06,07,11.20
2021,06,11,06,08,11.20
2021,06,11,06,09,11.20
2021,06,11,06,10,11.20
2021,06,11,06,11,11.20
2021,06,11,06,12,11.20
2021,06,11,06,13,11.20
2021,06,11,06,14,11.20
2021,06,11,06,15,11.30
2021,06,11,06,16,11.30
2021,06,11,06,17,11.30
2021,06,11,06,18,11.30
2021,06,11,06,19,11.40
2021,06,11,06,20,11.30
2021,06,11,06,21,11.30
2021,06,11,06,22,11.30
2021,06,11,06,23,11.30
2021,06,11,06,24,11.30
2021,06,11,06,25,11.30
2021,06,11,06,26,11.30
2021,06,11,06,27,11.40
2021,06,11,06,28,11.40
2021,06,11,06,29,11.40
2021,06,11,06,30,11.40
2021,06,11,06,31,11.40
2021,06,11,06,32,11.40
2021,06,11,06,33,11.40
2021,06,11,06,34,11.40
2021,06,11,06,35,11.40
2021,06,11,06,36,11.40
2021,06,11,06,37,11.40
2021,06,11,06,38,11.50
2021,06,11,06,39,11.50
2021,06,11,06,40,11.50
2021,06,11,06,41,11.50
2021,06,11,06,42,11.50
2021,06,11,06,43,11.50
2021,06,11,06,44,11.50
2021,06,11,06,45,11.50
2021,06,11,06,46,11.50
2021,06,11,06,47,11.50
2021,06,11,06,48,11.50
2021,06,11,06,49,11.50
2021,06,11,06,50,11.50
2021,06,11,06,51,11.50
2021,06,11,06,52,11.50
2021,06,11,06,53,11.50
2021,06,11,06,54,11.50
2021,06,11,06,55,11.50
2021,06,11,06,56,11.50
2021,06,11,06,57,11.60
2021,06,11,06,58,11.60
2021,06,11,06,59,11.60
2021,06,11,07,00,11.60
2021,06,11,07,01,11.60
2021,06,11,07,02,11.60
2021,06,11,07,03,11.60
2021,06,11,07,04,11.70
2021,06,11,07,05,11.70
2021,06,11,07,06,11.70
2021,06,11,07,07,11.60
2021,06,11,07,08,11.60
2021,06,11,07,09,11.60
2021,06,11,07,10,11.60
2021,06,11,07,11,11.60
2021,06,11,07,12,11.50
2021,06,11,07,13,11.60
2021,06,11,07,14,11.60
2021,06,11,07,15,11.60
2021,06,11,07,16,11.60
2021,06,11,07,17,11.60
2021,06,11,07,18,11.60
2021,06,11,07,19,11.70
2021,06,11,07,20,11.70
2021,06,11,07,21,11.70
2021,06,11,07,22,11.70
2021,06,11,07,23,11.80
2021,06,11,07,24,11.80
2021,06,11,07,25,11.80
2021,06,11,07,26,11.80
2021,06,11,07,27,11.80
2021,06,11,07,28,11.80
2021,06,11,07,29,11.80
2021,06,11,07,30,11.70
2021,06,11,07,31,11.70
2021,06,11,07,32,11.70
2021,06,11,07,33,11.70
2021,06,11,07,34,11.70
2021,06,11,07,35,11.80
2021,06,11,07,36,11.80
2021,06,11,07,37,11.80
2021,06,11,07,38,11.80
2021,06,11,07,39,11.80
2021,06,11,07,40,11.80
2021,06,11,07,41,11.80
2021,06,11,07,42,11.90
2021,06,11,07,43,11.90
2021,06,11,07,44,11.90
2021,06,11,07,45,11.90
2021,06,11,07,46,11.90
2021,06,11,07,47,11.90
2021,06,11,07,48,12.00
2021,06,11,07,49,12.00
2021,06,11,07,50,12.00
2021,06,11,07,51,12.00
2021,06,11,07,52,12.00
2021,06,11,07,53,12.00
2021,06,11,07,54,12.00
2021,06,11,07,55,12.10
2021,06,11,07,56,12.10
2021,06,11,07,57,12.10
2021,06,11,07,58,12.10
2021,06,11,07,59,12.10
2021,06,11,08,00,12.10
2021,06,11,08,01,12.00
2021,06,11,08,02,12.00
2021,06,11,08,03,12.10
2021,06,11,08,04,12.10
2021,06,11,08,05,12.00
2021,06,11,08,06,12.00
2021,06,11,08,07,12.00
2021,06,11,08,08,12.10
2021,06,11,08,09,12.10
2021,06,11,08,10,12.10
2021,06,11,08,11,12.10
2021,06,11,08,12,12.10
2021,06,11,08,13,12.10
2021,06,11,08,14,12.10
2021,06,11,08,15,12.10
2021,06,11,08,16,12.10
2021,06,11,08,17,12.10
2021,06,11,08,18,12.10
2021,06,11,08,19,12.10
2021,06,11,08,20,12.10
2021,06,11,08,21,12.10
2021,06,11,08,22,12.10
2021,06,11,08,23,12.10
2021,06,11,08,24,12.10
2021,06,11,08,25,12.10
2021,06,11,08,26,12.10
2021,06,11,08,27,12.10
2021,06,11,08,28,12.00
2021,06,11,08,29,12.00
2021,06,11,08,30,12.00
2021,06,11,08,31,12.00
2021,06,11,08,32,12.00
2021,06,11,08,33,12.10
2021,06,11,08,34,12.10
2021,06,11,08,35,12.00
2021,06,11,08,36,12.00
2021,06,11,08,37,11.90
2021,06,11,08,38,11.90
2021,06,11,08,39,11.90
2021,06,11,08,40,11.90
2021,06,11,08,41,12.00
2021,06,11,08,42,12.00
2021,06,11,08,43,12.10
2021,06,11,08,44,12.10
2021,06,11,08,45,12.10
2021,06,11,08,46,12.10
2021,06,11,08,47,12.10
2021,06,11,08,48,12.20
2021,06,11,08,49,12.20
2021,06,11,08,50,12.30
2021,06,11,08,51,12.30
2021,06,11,08,52,12.30
2021,06,11,08,53,12.30
2021,06,11,08,54,12.30
2021,06,11,08,55,12.40
2021,06,11,08,56,12.30
2021,06,11,08,57,12.30
2021,06,11,08,58,12.30
2021,06,11,08,59,12.30
2021,06,11,09,00,12.30
2021,06,11,09,01,12.30
2021,06,11,09,02,12.30
2021,06,11,09,03,12.20
2021,06,11,09,04,12.20
2021,06,11,09,05,12.20
2021,06,11,09,06,12.20
2021,06,11,09,07,12.20
2021,06,11,09,08,12.20
2021,06,11,09,09,12.20
2021,06,11,09,10,12.20
2021,06,11,09,11,12.20
2021,06,11,09,12,12.20
2021,06,11,09,13,12.20
2021,06,11,09,14,12.30
2021,06,11,09,15,12.30
2021,06,11,09,16,12.30
2021,06,11,09,17,12.30
2021,06,11,09,18,12.30
2021,06,11,09,19,12.30
2021,06,11,09,20,12.30
2021,06,11,09,21,12.30
2021,06,11,09,22,12.30
2021,06,11,09,23,12.40
2021,06,11,09,24,12.40
2021,06,11,09,25,12.40
2021,06,11,09,26,12.40
2021,06,11,09,27,12.40
2021,06,11,09,28,12.40
2021,06,11,09,29,12.40
2021,06,11,09,30,12.40
2021,06,11,09,31,12.40
2021,06,11,09,32,12.40
2021,06,11,09,33,12.30
2021,06,11,09,34,12.30
2021,06,11,09,35,12.30
2021,06,11,09,36,12.30
2021,06,11,09,37,12.30
2021,06,11,09,38,12.30
2021,06,11,09,39,12.30
2021,06,11,09,40,12.30
2021,06,11,09,41,12.30
2021,06,11,09,42,12.30
2021,06,11,09,43,12.20
2021,06,11,09,44,12.20
2021,06,11,09,45,12.20
2021,06,11,09,46,12.20
2021,06,11,09,47,12.20
2021,06,11,09,48,12.20
2021,06,11,09,49,12.20
2021,06,11,09,50,12.10
2021,06,11,09,51,12.10
2021,06,11,09,52,12.10
2021,06,11,09,53,12.10
2021,06,11,09,54,12.10
2021,06,11,09,55,12.10
2021,06,11,09,56,12.10
2021,06,11,09,57,12.10
2021,06,11,09,58,12.10
2021,06,11,09,59,12.00
2021,06,11,10,00,12.00
2021,06,11,10,01,12.00
2021,06,11,10,02,11.90
2021,06,11,10,03,11.90
2021,06,11,10,04,11.90
2021,06,11,10,05,11.90
2021,06,11,10,06,11.90
2021,06,11,10,07,11.90
2021,06,11,10,08,11.90
2021,06,11,10,09,11.90
2021,06,11,10,10,12.00
2021,06,11,10,11,12.00
2021,06,11,10,12,12.10
2021,06,11,10,13,12.20
2021,06,11,10,14,12.30
2021,06,11,10,15,12.30
2021,06,11,10,16,12.30
2021,06,11,10,17,12.40
2021,06,11,10,18,12.40
2021,06,11,10,19,12.50
2021,06,11,10,20,12.50
2021,06,11,10,21,12.50
2021,06,11,10,22,12.50
2021,06,11,10,23,12.50
2021,06,11,10,24,12.50
2021,06,11,10,25,12.50
2021,06,11,10,26,12.50
2021,06,11,10,27,12.50
2021,06,11,10,28,12.40
2021,06,11,10,29,12.40
2021,06,11,10,30,12.40
2021,06,11,10,31,12.40
2021,06,11,10,32,12.30
2021,06,11,10,33,12.30
2021,06,11,10,34,12.30
2021,06,11,10,35,12.20
2021,06,11,10,36,12.20
2021,06,11,10,37,12.20
2021,06,11,10,38,12.20
2021,06,11,10,39,12.20
2021,06,11,10,40,12.30
2021,06,11,10,41,12.30
2021,06,11,10,42,12.30
2021,06,11,10,43,12.30
2021,06,11,10,44,12.30
2021,06,11,10,45,12.30
2021,06,11,10,46,12.30
2021,06,11,10,47,12.30
2021,06,11,10,48,12.30
2021,06,11,10,49,12.30
2021,06,11,10,50,12.30
2021,06,11,10,51,12.30
2021,06,11,10,52,12.40
2021,06,11,10,53,12.40
2021,06,11,10,54,12.40
2021,06,11,10,55,12.50
2021,06,11,10,56,12.50
2021,06,11,10,57,12.50
2021,06,11,10,58,12.60
2021,06,11,10,59,12.60
2021,06,11,11,00,12.60
2021,06,11,11,01,12.60
2021,06,11,11,02,12.60
2021,06,11,11,03,12.60
2021,06,11,11,04,12.70
2021,06,11,11,05,12.60
2021,06,11,11,06,12.60
2021,06,11,11,07,12.70
2021,06,11,11,08,12.70
2021,06,11,11,09,12.70
2021,06,11,11,10,12.80
2021,06,11,11,11,12.80
2021,06,11,11,12,12.80
2021,06,11,11,13,12.80
2021,06,11,11,14,12.80
2021,06,11,11,15,12.80
2021,06,11,11,16,12.80
2021,06,11,11,17,12.80
2021,06,11,11,18,12.80
2021,06,11,11,19,12.80
2021,06,11,11,20,12.80
2021,06,11,11,21,12.70
2021,06,11,11,22,12.70
2021,06,11,11,23,12.70
2021,06,11,11,24,12.70
2021,06,11,11,25,12.70
2021,06,11,11,26,12.70
2021,06,11,11,27,12.70
2021,06,11,11,28,12.60
2021,06,11,11,29,12.60
2021,06,11,11,30,12.60
2021,06,11,11,31,12.60
2021,06,11,11,32,12.60
2021,06,11,11,33,12.50
2021,06,11,11,34,12.50
2021,06,11,11,35,12.50
2021,06,11,11,36,12.40
2021,06,11,11,37,12.40
2021,06,11,11,38,12.40
2021,06,11,11,39,12.40
2021,06,11,11,40,12.40
2021,06,11,11,41,12.30
2021,06,11,11,42,12.30
2021,06,11,11,43,12.30
2021,06,11,11,44,12.30
2021,06,11,11,45,12.30
2021,06,11,11,46,12.30
2021,06,11,11,47,12.30
2021,06,11,11,48,12.30
2021,06,11,11,49,12.20
2021,06,11,11,50,12.20
2021,06,11,11,51,12.10
2021,06,11,11,52,12.10
2021,06,11,11,53,12.10
2021,06,11,11,54,12.10
2021,06,11,11,55,12.10
2021,06,11,11,56,12.10
2021,06,11,11,57,12.10
2021,06,11,11,58,12.10
2021,06,11,11,59,12.10
2021,06,11,12,00,12.00
2021,06,11,12,01,12.00
2021,06,11,12,02,12.00
2021,06,11,12,03,12.00
2021,06,11,12,04,12.00
2021,06,11,12,05,12.00
2021,06,11,12,06,12.00
2021,06,11,12,07,12.00
2021,06,11,12,08,11.90
2021,06,11,12,09,11.90
2021,06,11,12,10,11.90
2021,06,11,12,11,11.90
2021,06,11,12,12,11.90
2021,06,11,12,13,11.90
2021,06,11,12,14,11.90
2021,06,11,12,15,11.90
2021,06,11,12,16,11.80
2021,06,11,12,17,11.80
2021,06,11,12,18,11.80
2021,06,11,12,19,11.80
2021,06,11,12,20,11.80
2021,06,11,12,21,11.80
2021,06,11,12,22,11.80
2021,06,11,12,23,11.80
2021,06,11,12,24,11.90
2021,06,11,12,25,11.90
2021,06,11,12,26,11.90
2021,06,11,12,27,11.90
2021,06,11,12,28,11.90
2021,06,11,12,29,12.00
2021,06,11,12,30,11.90
2021,06,11,12,31,11.90
2021,06,11,12,32,11.90
2021,06,11,12,33,12.00
2021,06,11,12,34,12.00
2021,06,11,12,35,11.90
2021,06,11,12,36,11.90
2021,06,11,12,37,12.00
2021,06,11,12,38,12.00
2021,06,11,12,39,12.00
2021,06,11,12,40,12.00
2021,06,11,12,41,12.00
2021,06,11,12,42,12.00
2021,06,11,12,43,12.00
2021,06,11,12,44,12.00
2021,06,11,12,45,12.00
2021,06,11,12,46,12.00
2021,06,11,12,47,11.90
2021,06,11,12,48,11.90
2021,06,11,12,49,11.90
2021,06,11,12,50,11.90
2021,06,11,12,51,11.90
2021,06,11,12,52,11.80
2021,06,11,12,53,11.80
2021,06,11,12,54,11.90
2021,06,11,12,55,11.90
2021,06,11,12,56,11.90
2021,06,11,12,57,12.00
2021,06,11,12,58,12.00
2021,06,11,12,59,12.10
2021,06,11,13,00,12.10
2021,06,11,13,01,12.10
2021,06,11,13,02,12.10
2021,06,11,13,03,12.10
2021,06,11,13,04,12.10
2021,06,11,13,05,12.10
2021,06,11,13,06,12.20
2021,06,11,13,07,12.20
2021,06,11,13,08,12.20
2021,06,11,13,09,12.20
2021,06,11,13,10,12.20
2021,06,11,13,11,12.20
2021,06,11,13,12,12.20
2021,06,11,13,13,12.20
2021,06,11,13,14,12.20
2021,06,11,13,15,12.20
2021,06,11,13,16,12.20
2021,06,11,13,17,12.20
2021,06,11,13,18,12.20
2021,06,11,13,19,12.20
2021,06,11,13,20,12.10
2021,06,11,13,21,12.10
2021,06,11,13,22,12.10
2021,06,11,13,23,12.10
2021,06,11,13,24,12.10
2021,06,11,13,25,12.10
2021,06,11,13,26,12.10
2021,06,11,13,27,12.10
2021,06,11,13,28,12.10
2021,06,11,13,29,12.10
2021,06,11,13,30,12.00
2021,06,11,13,31,12.00
2021,06,11,13,32,12.00
2021,06,11,13,33,12.00
2021,06,11,13,34,12.00
2021,06,11,13,35,12.00
2021,06,11,13,36,12.00
2021,06,11,13,37,12.00
2021,06,11,13,38,12.00
2021,06,11,13,39,12.00
2021,06,11,13,40,12.00
2021,06,11,13,41,12.00
2021,06,11,13,42,12.00
2021,06,11,13,43,12.00
2021,06,11,13,44,12.00
2021,06,11,13,45,12.00
2021,06,11,13,46,12.10
2021,06,11,13,47,12.10
2021,06,11,13,48,12.10
2021,06,11,13,49,12.10
2021,06,11,13,50,12.10
2021,06,11,13,51,12.10
2021,06,11,13,52,12.10
2021,06,11,13,53,12.10
2021,06,11,13,54,12.10
2021,06,11,13,55,12.10
2021,06,11,13,56,12.20
2021,06,11,13,57,12.20
2021,06,11,13,58,12.10
2021,06,11,13,59,12.00
2021,06,11,14,00,12.00
2021,06,11,14,01,12.00
2021,06,11,14,02,12.00
2021,06,11,14,03,11.90
2021,06,11,14,04,11.90
2021,06,11,14,05,11.90
2021,06,11,14,06,11.90
2021,06,11,14,07,11.90
2021,06,11,14,08,11.80
2021,06,11,14,09,11.80
2021,06,11,14,10,11.80
2021,06,11,14,11,11.80
2021,06,11,14,12,11.80
2021,06,11,14,13,11.80
2021,06,11,14,14,11.70
2021,06,11,14,15,11.70
2021,06,11,14,16,11.70
2021,06,11,14,17,11.70
2021,06,11,14,18,11.70
2021,06,11,14,19,11.60
2021,06,11,14,20,11.60
2021,06,11,14,21,11.50
2021,06,11,14,22,11.40
2021,06,11,14,23,11.40
2021,06,11,14,24,11.40
2021,06,11,14,25,11.40
2021,06,11,14,26,11.30
2021,06,11,14,27,11.30
2021,06,11,14,28,11.30
2021,06,11,14,29,11.30
2021,06,11,14,30,11.30
2021,06,11,14,31,11.30
2021,06,11,14,32,11.30
2021,06,11,14,33,11.30
2021,06,11,14,34,11.20
2021,06,11,14,35,11.20
2021,06,11,14,36,11.10
2021,06,11,14,37,11.10
2021,06,11,14,38,11.20
2021,06,11,14,39,11.30
2021,06,11,14,40,11.30
2021,06,11,14,41,11.30
2021,06,11,14,42,11.20
2021,06,11,14,43,11.20
2021,06,11,14,44,11.10
2021,06,11,14,45,11.10
2021,06,11,14,46,11.10
2021,06,11,14,47,11.10
2021,06,11,14,48,11.10
2021,06,11,14,49,11.10
2021,06,11,14,50,11.10
2021,06,11,14,51,11.10
2021,06,11,14,52,11.10
2021,06,11,14,53,11.20
2021,06,11,14,54,11.20
2021,06,11,14,55,11.20
2021,06,11,14,56,11.20
2021,06,11,14,57,11.20
2021,06,11,14,58,11.20
2021,06,11,14,59,11.20
2021,06,11,15,00,11.20
2021,06,11,15,01,11.20
2021,06,11,15,02,11.20
2021,06,11,15,03,11.30
2021,06,11,15,04,11.30
2021,06,11,15,05,11.30
2021,06,11,15,06,11.30
2021,06,11,15,07,11.30
2021,06,11,15,08,11.30
2021,06,11,15,09,11.30
2021,06,11,15,10,11.30
2021,06,11,15,11,11.30
2021,06,11,15,12,11.40
2021,06,11,15,13,11.40
2021,06,11,15,14,11.40
2021,06,11,15,15,11.50
2021,06,11,15,16,11.50
2021,06,11,15,17,11.60
2021,06,11,15,18,11.60
2021,06,11,15,19,11.60
2021,06,11,15,20,11.60
2021,06,11,15,21,11.60
2021,06,11,15,22,11.60
2021,06,11,15,23,11.60
2021,06,11,15,24,11.70
2021,06,11,15,25,11.70
2021,06,11,15,26,11.60
2021,06,11,15,27,11.60
2021,06,11,15,28,11.60
2021,06,11,15,29,11.60
2021,06,11,15,30,11.50
2021,06,11,15,31,11.50
2021,06,11,15,32,11.40
2021,06,11,15,33,11.40
2021,06,11,15,34,11.50
2021,06,11,15,35,11.50
2021,06,11,15,36,11.50
2021,06,11,15,37,11.50
2021,06,11,15,38,11.60
2021,06,11,15,39,11.60
2021,06,11,15,40,11.60
2021,06,11,15,41,11.60
2021,06,11,15,42,11.60
2021,06,11,15,43,11.60
2021,06,11,15,44,11.60
2021,06,11,15,45,11.60
2021,06,11,15,46,11.60
2021,06,11,15,47,11.60
2021,06,11,15,48,11.70
2021,06,11,15,49,11.70
2021,06,11,15,50,11.70
2021,06,11,15,51,11.70
2021,06,11,15,52,11.70
2021,06,11,15,53,11.80
2021,06,11,15,54,11.80
2021,06,11,15,55,11.80
2021,06,11,15,56,11.80
2021,06,11,15,57,11.80
2021,06,11,15,58,11.80
2021,06,11,15,59,11.80
2021,06,11,16,00,11.80
2021,06,11,16,01,11.80
2021,06,11,16,02,11.80
2021,06,11,16,03,11.70
2021,06,11,16,04,11.70
2021,06,11,16,05,11.70
2021,06,11,16,06,11.70
2021,06,11,16,07,11.80
2021,06,11,16,08,11.80
2021,06,11,16,09,11.80
2021,06,11,16,10,11.80
2021,06,11,16,11,11.80
2021,06,11,16,12,11.80
2021,06,11,16,13,11.80
2021,06,11,16,14,11.80
2021,06,11,16,15,11.80
2021,06,11,16,16,11.80
2021,06,11,16,17,11.80
2021,06,11,16,18,11.80
2021,06,11,16,19,11.80
2021,06,11,16,20,11.80
2021,06,11,16,21,11.80
2021,06,11,16,22,11.80
2021,06,11,16,23,11.80
2021,06,11,16,24,11.80
2021,06,11,16,25,11.80
2021,06,11,16,26,11.80
2021,06,11,16,27,11.80
2021,06,11,16,28,11.80
2021,06,11,16,29,11.80
2021,06,11,16,30,11.90
2021,06,11,16,31,11.90
2021,06,11,16,32,11.90
2021,06,11,16,33,11.90
2021,06,11,16,34,11.90
2021,06,11,16,35,11.90
2021,06,11,16,36,12.00
2021,06,11,16,37,12.00
2021,06,11,16,38,12.00
2021,06,11,16,39,12.00
2021,06,11,16,40,12.10
2021,06,11,16,41,12.10
2021,06,11,16,42,12.10
2021,06,11,16,43,12.20
2021,06,11,16,44,12.20
2021,06,11,16,45,12.30
2021,06,11,16,46,12.30
2021,06,11,16,47,12.30
2021,06,11,16,48,12.30
2021,06,11,16,49,12.30
2021,06,11,16,50,12.30
2021,06,11,16,51,12.30
2021,06,11,16,52,12.30
2021,06,11,16,53,12.30
2021,06,11,16,54,12.30
2021,06,11,16,55,12.30
2021,06,11,16,56,12.30
2021,06,11,16,57,12.30
2021,06,11,16,58,12.30
2021,06,11,16,59,12.30
2021,06,11,17,00,12.40
2021,06,11,17,01,12.30
2021,06,11,17,02,12.40
2021,06,11,17,03,12.40
2021,06,11,17,04,12.40
2021,06,11,17,05,12.40
2021,06,11,17,06,12.50
2021,06,11,17,07,12.50
2021,06,11,17,08,12.50
2021,06,11,17,09,12.50
2021,06,11,17,10,12.50
2021,06,11,17,11,12.50
2021,06,11,17,12,12.50
2021,06,11,17,13,12.50
2021,06,11,17,14,12.50
2021,06,11,17,15,12.50
2021,06,11,17,16,12.60
2021,06,11,17,17,12.60
2021,06,11,17,18,12.70
2021,06,11,17,19,12.70